Back to catalog

SUPERVIEW NEO-2 03

AliveScienceSSO
NORAD 62079·PAYLOAD·🇨🇳 China

Launched Nov 24, 2024 from Jiuquan Satellite Launch Center

Loading…

Next Passes (next 24 hours)

TLE

FreshSource: Space-Track

Epoch: Sep 14, 2026, 11:12 UTC

1 62079U 24218B   26257.46734699 -.00000047  00000-0  92887-6 0  9993
2 62079  97.4391 263.5347 0001569  90.2827 269.8588 15.19720688100002

Track SUPERVIEW NEO-2 03 in real time with AllMySat

Download on the App Store